Погода в Кольском

Россия / Калужская область     54°09′23″N   35°21′47″E
темп.,
°C
ветер,
м/с
пор.,
м/с
влажн.,
%
обл.,
%
осадки,
мм/ч
давл.,
гПа
погр.,
м
20 января, чт
чт2000:00−7ююз51195100 0.1 1013296
03:00−6ююз61295100 0.1 1012307
06:00−4ююз61394100 0.1 1009443
09:00−4ююз71494100 0.1 1008486
12:00−3ююз71593100 0.1 1006578
15:00−2ю81693100 0.1 1003733
18:00−3ююз81593100 0.1 1002772
21:00−3ююз71494100 0.4 1001674
21 января, пт
пт2100:00−3ююз61395100 0.9 1001579
03:00−3ю61194100 0.9 1000463
06:00−4ю51095100 0.1 998602
09:00−4ююв4995100 0.1 997340
12:00−3юз4690100 0.2 997543
15:00−5ю4890100 0.2 997392
18:00−10ююв489786 0.0 997108
21:00−7ююв5109595 0.1 996314
22 января, сб
сб2200:00−6юв4996100 0.3 997308
03:00−6ююв359795 0.7 997125
06:00−5ююз4896100 0.4 999321
09:00−9ю369770 0.5 1002102
12:00−7ю359777 0.1 1005225
15:00−7ююв249499 0.1 1007133
18:00−9юв2298100 0.1 101120
21:00−12юв229982 0.1 101310
23 января, вс
вс2300:00−15вюв22100100 0.1 101619
03:00−15вюв229987 0.1 101814
06:00−18в22100100 0.0 10209
09:00−18всв2110099 0.1 102310
12:00−11всв239692 0.1 1025105
15:00−10св249672 0.1 1026117
18:00−16ссв22100100 0.0 102929
21:00−16св36100100 0.1 103166
24 января, пн
пн2400:00−17св35100100 0.0 103261
03:00−18ссв36100100 0.1 103272
06:00−18ссв38100100 0.0 1032100
09:00−16ссв51199100 0.1 1031175
12:00−12ссв5109595 0.1 1030236
15:00−9ссв479589 0.1 1029261
18:00−13ссв369997 0.0 102868
21:00−15с34100100 0.1 102853